Powrót do katalogu

ARABSAT 2A

AktywnyŁącznośćGEO
NORAD 23948·PAYLOAD·🇦🇪 UAE🇸🇦 Saudi Arabia

Wystrzelony Jul 9, 1996 z Guiana Space Centre

Loading…

TLE

ŚwieżeSource: Space-Track

Epoka: Sep 13, 2026, 21:00 UTC

1 23948U 96040A   26256.87500252  .00000058  00000-0  00000+0 0  9997
2 23948  14.3117   8.3654 0005377 180.0455 183.5805  0.99224977109746

Śledź ARABSAT 2A w czasie rzeczywistym z AllMySat

Download on the App Store